Simultaneous Nadir Overpasses (SNOs) Predictions

Prediction of SNOs between METOP-B and TERRA Satellite Orbit:

Table of predicted SNOs for the next 14.0 days since TLE Epoch: 11/2/2024
Index Date (METOP-B) Time (METOP-B) Lat,Lon (METOP-B) SZA (METOP-B ) Date (TERRA) Time (TERRA) Lat,Lon (TERRA) SZA (TERRA ) Distance(km) Time Diff (sec)
1 11/03/2024 15:59:44 -79.42, 133.03 84.84 11/03/2024 16:00:47 -79.43, 133.11 84.82 2.04 63
2 11/03/2024 16:50:16 79.69, -57.45 95.55 11/03/2024 16:50:00 79.68, -57.50 95.54 1.03 16
3 11/06/2024 06:29:48 -79.47, -84.13 83.99 11/06/2024 06:30:28 -79.48, -84.03 83.97 2.36 40
4 11/06/2024 07:20:20 79.73, 85.39 96.40 11/06/2024 07:19:41 79.73, 85.39 96.39 0.08 39
5 11/08/2024 20:59:49 -79.56, 59.08 83.11 11/08/2024 21:00:05 -79.56, 59.07 83.10 0.15 16
6 11/08/2024 21:50:21 79.82,-131.38 97.28 11/08/2024 21:49:18 79.82,-131.47 97.25 2.01 63
7 11/11/2024 10:39:16 79.42, 33.09 97.41 11/11/2024 10:40:26 79.42, 33.01 97.42 1.64 70
8 11/11/2024 11:29:52 -79.60,-158.15 82.33 11/11/2024 11:29:42 -79.60,-158.10 82.33 0.99 10
9 11/14/2024 01:09:17 79.50, 176.20 98.21 11/14/2024 01:10:00 79.50, 176.09 98.21 2.50 43



Historial Predications of SNOs between METOP-B and TERRA
